Location: Chiroubles
(46.1812°N, 4.6660°E)
Time: 11:09:21
(UTC+00:00)

N. Korean satellite - Pass Details

Date: 27 October 2020
Orbit: 453 x 503 km, 97.2° (Epoch: 03 December)

Event Time Altitude Azimuth Distance (km) Brightness Sun altitude
Rises 17:34:51 0° 215° (SW) 2,549 10.9 -11.1°
Reaches altitude 10° 17:38:18 10° 252° (WSW) 1,661 10.7 -11.7°
Maximum altitude 17:39:26 11° 270° (W) 1,585 10.6 -11.9°
Drops below altitude 10° 17:40:39 10° 290° (WNW) 1,667 10.4 -12.1°
Sets 17:44:01 0° 326° (NW) 2,528 10.6 -12.7°
